Regional Weather Roundup
Issued by NWS Jackson, KY

Home | Current Version | Previous Version | Graphics & Text | Print | Product List | Glossary On
Versions: 1 2 3 4 5 6 7 8 9 10 11 12 13 14 15 16 17 18 19 20 21 22 23 24 25 26 27 28 29 30 31 32 33 34 35 36 37 38 39 40 41 42 43 44 45 46 47 48 49 50
000
ASUS43 KJKL 051010
RWRJKL

EAST KENTUCKY HOURLY WEATHER ROUNDUP
NATIONAL WEATHER SERVICE JACKSON KY
500 AM EST THU MAR 05 2015

NOTE: "FAIR" INDICATES FEW OR NO CLOUDS BELOW 12,000 FEET WITH
NO SIGNIFICANT WEATHER AND/OR OBSTRUCTIONS TO VISIBILITY.

* THESE REPORTS ARE NOT UNDER NWS QUALITY CONTROL AND MAY NOT
  REPORT WEATHER SUCH AS PRECIPITATION AND FOG.

KYZ079-080-083-085-087-088-110-112-115-119-120-051100
...EASTERN KENTUCKY...

CITY           SKY/WX    TMP DP  RH WIND       PRES   REMARKS
JACKSON        SNOW      27  24  89 NE6       30.10R VSB 1/2 WCI  20
LONDON         LGT SNOW  28  23  81 N14G24    30.09R WCI  17
SOMERSET*      LGT SNOW  27  25  93 N8        30.15R WCI  18
MONTICELLO*    LGT SNOW  27  25  93 N10       30.15F FOG     WCI  17
MIDDLESBORO*   LGT SNOW  34  32  93 N6        30.06R WCI  29
HAZARD APT*    LGT SNOW  30  30 100 NE6       30.10R WCI  24
BLACK MTN*       N/A     25  25 100 VRB6        N/A  WCI  18
PIKEVILLE APT* LGT SNOW  27  27 100 N9        30.09R WCI  17
BIG SANDY*     LGT SNOW  27  26  96 N8G20     30.11R WCI  18
MOREHEAD APT*  LGT SNOW  21  18  86 N13       30.20R WCI   9
$$

KYZ035-036-041-042-044-050-067-078-099-051100
...CENTRAL KENTUCKY...

CITY           SKY/WX    TMP DP  RH WIND       PRES   REMARKS
MT STERLING*   LGT SNOW  21  19  93 NE9G22    30.20R WCI  11
FLEMING/MASON* LGT SNOW  18  16  93 N9        30.23R WCI   6
DANVILLE*      LGT SNOW  21  19  93 N12       30.18S WCI   9
RICHMOND*      CLOUDY    21  19  93 N8        30.16R WCI  12
LEXINGTON      CLOUDY    20  17  88 N12       30.19R FOG     WCI   8
FRANKFORT      LGT SNOW  20  16  84 N13       30.22R VSB 1   WCI   7
$$

KYZ091>093-OHZ055-061-077-WVZ005-015-034-035-042-051100
...SOUTHERN OHIO/WEST VIRGINIA...

CITY           SKY/WX    TMP DP  RH WIND       PRES   REMARKS
COVINGTON      LGT SNOW  19  10  68 NE12      30.24S FOG     WCI   7
COLUMBUS       CLOUDY    18   5  57 N13       30.23R WCI   5
DAYTON         CLOUDY    19   6  57 N14       30.26R WCI   6
WILMINGTON     LGT SNOW  16  10  77 N13       30.22F WCI   2
HUNTINGTON     LGT SNOW  22  20  92 N12       30.17R FOG     WCI  10
CHARLESTON     LGT SNOW  28  25  88 N7        30.11S FOG     WCI  21
PINEVILLE*     MIX PCPN  34  34 100 MISG      30.06R
BECKLEY        MIX PCPN  29  27  92 N13       29.98S WCI  19
BLUEFIELD      FRZ RAIN  32  28  85 N8        29.95S FOG     WCI  25
$$

VAZ002-007-008-TNZ017-027-036-066-071-051100
...SOUTHWEST VIRGINIA/EAST TENNESSEE...

CITY           SKY/WX    TMP DP  RH WIND       PRES   REMARKS
WISE*          LGT SNOW  32  32 100 N8        30.00R WCI  25
JONESVILLE*    RAIN      34  34 100 CALM      30.03S
ABINGDON*      DRIZZLE   37  36  96 N3        29.93R
BRISTOL        LGT RAIN  36  34  92 N12       29.97R WCI  28
KNOXVILLE      LGT RAIN  36  34  92 N8        30.01R WCI  30
OAK RIDGE      LGT RAIN  37  35  92 VRB6      30.02R WCI  32
CROSSVILLE     FRZ RAIN  32  29  88 N10       30.00R FOG     WCI  24
NASHVILLE      LGT SNOW  24  21  88 N16G24    30.16F FOG     WCI  11
$$

...KEY TO REMARKS...
VSB - VISIBILITY IN MILES
WCI - WIND CHILL INDEX
HX  - HEAT INDEX

$$



USA.gov is the U.S. government's official web portal to all federal, state and local government web resources and services.